Phnom Penh, Cambodia

8:43 AM +07 on August 18, 2017 (GMT +0700)
Pochentong International

Weather History for VDPP - December, 2013

Change the Weather History Date:

Wednesday, December 4, 2013

  Actual Average Record
Temperature  
Mean Temperature 80 °F -  
Max Temperature 86 °F 83 °F 91 °F (2014)
Min Temperature 75 °F 73 °F 71 °F (2007)
Cooling Degree Days 16    
Growing Degree Days 30 (Base 50)    
Moisture  
Dew Point 63 °F    
Average Humidity 58    
Maximum Humidity 70    
Minimum Humidity 5    
Precipitation  
Precipitation 0.00 in - - ()
Sea Level Pressure  
Sea Level Pressure 29.81 in    
Wind  
Wind Speed 9 mph ()    
Max Wind Speed 20 mph    
Max Gust Speed 21 mph    
Visibility 5.9 miles    
Events      
Averages and records for this station are not official NWS values.
T = Trace of Precipitation, MM = Missing Value Source: Averaged Metar Reports

Daily Weather History Graph

Daily Weather History Graph

Search for Another Location

Airport or City:

Trip Planner

Search our weather history database for the weather conditions in past years. The results will help you decide how hot, cold, wet, or windy it might be!

Date:

Astronomy

Dec. 04, 2013 Rise Set
Actual Time 6:06 AM +07 5:35 PM +07
Civil Twilight 5:43 AM +07 5:58 PM +07
Nautical Twilight 5:17 AM +07 6:24 PM +07
Astronomical Twilight 4:51 AM +07 6:50 PM +07
Moon 7:07 AM +07 (12/4) 7:03 PM +07 (12/4)
Length of Visible Light 12h 14m
Length of Day
11h 29m
New Moon, 2% of the Moon is Illuminated
Dec 4
New Moon
Dec 9
First Quarter
Dec 17
Full
Dec 25
Last Quarter
Jan 1
New

Hourly Weather History & Observations

Time (+07) Temp. Heat Index Dew Point Humidity Pressure Visibility Wind Dir Wind Speed Gust Speed Precip Events Conditions
12:00 AM 77.0 °F - 66.2 °F 69% 29.83 in 5.6 mi North 8.1 mph - N/A   Scattered Clouds
12:30 AM 77.0 °F - 66.2 °F 69% 29.83 in 5.6 mi North 6.9 mph - N/A   Scattered Clouds
1:00 AM 77.0 °F - 66.2 °F 69% 29.83 in 5.6 mi North 8.1 mph - N/A   Scattered Clouds
6:00 AM 75.2 °F - -2.2 °F 5% 29.83 in 5.6 mi North 9.2 mph - N/A   Partly Cloudy
7:00 AM 78.8 °F - -0.4 °F 5% 29.83 in - North 11.5 mph - N/A   Clear
7:30 AM 78.8 °F - 64.4 °F 61% 29.86 in - NNE 12.7 mph - N/A   Clear
8:00 AM 78.8 °F - 64.4 °F 61% 29.86 in - NNE 16.1 mph - N/A   Clear
8:30 AM 78.8 °F - 64.4 °F 61% 29.86 in - NNE 12.7 mph - N/A   Clear
9:00 AM 80.6 °F 82.7 °F 66.2 °F 61% 29.86 in - NE 15.0 mph - N/A   Clear
9:30 AM 80.6 °F 82.3 °F 64.4 °F 58% 29.86 in - NNE 19.6 mph - N/A   Clear
10:00 AM 80.6 °F 82.3 °F 64.4 °F 58% 29.86 in - NNE 16.1 mph - N/A   Clear
10:30 AM 82.4 °F 84.6 °F 66.2 °F 58% 29.86 in 6.2 mi NNE 17.3 mph - N/A   Partly Cloudy
11:30 AM 84.2 °F 86.6 °F 66.2 °F 55% 29.83 in 6.2 mi NNE 10.4 mph - N/A   Partly Cloudy
12:00 PM 84.2 °F 87.3 °F 68.0 °F 58% 29.83 in 6.2 mi NNW 15.0 mph - N/A   Partly Cloudy
12:30 PM 84.2 °F 87.3 °F 68.0 °F 58% 29.80 in 6.2 mi NNW 13.8 mph - N/A   Partly Cloudy
1:00 PM 84.2 °F 87.3 °F 68.0 °F 58% 29.80 in 6.2 mi NNW 11.5 mph - N/A   Partly Cloudy
1:30 PM 84.2 °F 86.6 °F 66.2 °F 55% 29.77 in 6.2 mi North 12.7 mph - N/A   Partly Cloudy
2:00 PM 84.2 °F 87.3 °F 68.0 °F 58% 29.77 in 6.2 mi NNW 10.4 mph - N/A   Scattered Clouds
2:30 PM 86.0 °F 89.4 °F 68.0 °F 55% 29.74 in 6.2 mi North 9.2 mph - N/A   Scattered Clouds
3:00 PM 86.0 °F 89.4 °F 68.0 °F 55% 29.74 in 6.2 mi North 11.5 mph - N/A   Scattered Clouds
3:30 PM 86.0 °F 89.4 °F 68.0 °F 55% 29.74 in 6.2 mi North 11.5 mph - N/A   Scattered Clouds
4:00 PM 86.0 °F 88.2 °F 66.2 °F 51% 29.74 in 6.2 mi North 9.2 mph 20.7 mph N/A   Scattered Clouds
4:30 PM 86.0 °F 88.2 °F 66.2 °F 51% 29.74 in 6.2 mi North 9.2 mph - N/A   Scattered Clouds
5:00 PM 86.0 °F 89.4 °F 68.0 °F 55% 29.74 in 6.2 mi North 8.1 mph - N/A   Scattered Clouds
5:30 PM 84.2 °F 87.3 °F 68.0 °F 58% 29.77 in 6.2 mi North 6.9 mph - N/A   Scattered Clouds
6:00 PM 84.2 °F 87.3 °F 68.0 °F 58% 29.77 in 6.2 mi NNW 5.8 mph - N/A   Scattered Clouds
6:30 PM 82.4 °F 85.4 °F 68.0 °F 62% 29.80 in 6.2 mi NNW 6.9 mph - N/A   Scattered Clouds
7:00 PM 82.4 °F 85.4 °F 68.0 °F 62% 29.80 in 5.6 mi North 6.9 mph - N/A   Partly Cloudy
7:30 PM 80.6 °F 83.2 °F 68.0 °F 65% 29.80 in 5.6 mi North 6.9 mph - N/A   Partly Cloudy
8:00 PM 80.6 °F 83.9 °F 69.8 °F 70% 29.80 in 5.6 mi North 6.9 mph - N/A   Partly Cloudy
8:30 PM 78.8 °F - 68.0 °F 69% 29.80 in 5.6 mi North 6.9 mph - N/A   Partly Cloudy
9:00 PM 80.6 °F 83.2 °F 68.0 °F 65% 29.83 in 5.6 mi North 5.8 mph - N/A   Partly Cloudy
9:30 PM 78.8 °F - 68.0 °F 69% 29.83 in 5.6 mi North 6.9 mph - N/A   Partly Cloudy
10:00 PM 78.8 °F - 68.0 °F 69% 29.83 in 5.6 mi North 4.6 mph - N/A   Partly Cloudy
10:30 PM 78.8 °F - 68.0 °F 69% 29.83 in 5.6 mi North 4.6 mph - N/A   Partly Cloudy
11:00 PM 78.8 °F - 68.0 °F 69% 29.80 in 5.6 mi North 5.8 mph - N/A   Partly Cloudy
11:30 PM 78.8 °F - 68.0 °F 69% 29.80 in 5.6 mi North 5.8 mph - N/A   Partly Cloudy